Hourly Weather Roundup
Issued by NWS Central Illinois

Home | Current Version | Previous Version | Graphics & Text | Print | Product List | Glossary On
Versions: 1 2 3 4 5 6 7 8 9 10 11 12 13 14 15 16 17 18 19 20 21 22 23 24 25 26 27 28 29 30 31 32 33 34 35 36 37 38 39 40 41 42 43 44 45 46 47 48 49 50
000
NZUS43 KILX 220910
HWRILX

AREA WEATHER ROUNDUP
NATIONAL WEATHER SERVICE, LINCOLN IL
400 AM CDT FRI MAY 22 2015


CITY           SKY/WX    TMP DP  RH WIND       PRES   REMARKS
BLOOMINGTON    CLEAR     53  46  77 W10       30.12R
CHAMPAIGN      CLEAR     49  44  83 SW7       30.12S
DANVILLE       CLEAR     49  44  84 SW7       30.09R
DECATUR        CLEAR     54  45  71 SW9       30.14R
EFFINGHAM      CLEAR     48  41  76 SW6       30.19R
FLORA          CLEAR     49  42  79 SW7       30.20R
GALESBURG      CLEAR     52  46  79 W5        30.12R
JACKSONVILLE   CLEAR     54  47  77 SW9       30.15S
LACON          CLEAR     53  46  76 S5        30.09R
LAWRENCEVILLE  CLEAR     47  42  83 SW3       30.19R
LITCHFIELD     CLEAR     50  43  77 SW7       30.18R
$$


CITY           SKY/WX    TMP DP  RH WIND       PRES   REMARKS
LINCOLN        CLEAR     57  46  64 W8        30.11R
MACOMB         CLEAR     53  47  79 W10       30.15R
MATTOON        CLEAR     52  42  69 SW10      30.14R
MT CARMEL AP   CLEAR     50  43  76 W7        30.19R
OLNEY-NOBLE AP CLEAR     48  43  81 SW3       30.20R
PARIS          CLEAR     50  43  78 SW13      30.14R
PEORIA         CLEAR     56  46  69 W6        30.11R
PONTIAC        CLEAR     53  47  81 SW8       30.09R
RANTOUL        CLEAR     54  46  73 W7        30.11R
ROBINSON       CLEAR     51  42  73 SW12      30.18S
SPRINGFIELD    CLEAR     55  45  68 W9        30.14R
TAYLORVILLE    CLEAR     52  45  76 SW9       30.15S
$$

...REGIONAL REPORTS...


CITY           SKY/WX    TMP DP  RH WIND       PRES   REMARKS
CHICAGO O`HARE CLEAR     49  40  71 N9        30.08R
KANKAKEE       CLEAR     52  46  78 SW6       30.08R
MOLINE         CLEAR     47  41  80 W5        30.10R
MOUNT VERNON   CLEAR     41  36  81 CALM      30.21S
PITTSFIELD     CLEAR     57  46  64 W9        30.17S
QUINCY         CLEAR     52  45  77 W8        30.16S
ROCKFORD       CLEAR     49  42  77 NE7       30.12R
$$


CITY           SKY/WX    TMP DP  RH WIND       PRES   REMARKS
BURLINGTON     CLEAR     53  46  77 W5        30.13R
CEDAR RAPIDS   CLEAR     44  38  79 W7        30.12R
DES MOINES     CLEAR     53  42  66 W6        30.17R
KIRKSVILLE     CLEAR     53  44  71 W7        30.19S
OTTUMWA        CLEAR     52  43  71 W10       30.15R
ST LOUIS       CLEAR     53  43  68 W6        30.20R
$$


CITY           SKY/WX    TMP DP  RH WIND       PRES   REMARKS
TERRE HAUTE    CLEAR     50  42  74 SW9       30.15S
EVANSVILLE     CLEAR     46  43  89 W6        30.21R
INDIANAPOLIS   CLEAR     47  41  80 SW10      30.12R
LAFAYETTE      PTCLDY    46  42  86 SW5       30.10S
MADISON        CLEAR     42  35  76 CALM      30.10R
MILWAUKEE      CLEAR     45  32  60 N5        30.11R
$$





USA.gov is the U.S. government's official web portal to all federal, state and local government web resources and services.